CW0315 Weather Reports


time (UTC)temp
C
wind
direction
speed
KPH
gust
KPH
rain 1hr
cm
rain 24hr
cm
rain mn
cm
humidity
%
barometer
mb
20260903044314 13 45 4.8 4.8 0.00 0.00 0.00 80 1020.1
20260903043312 13 0 0.0 0.0 0.00 0.00 0.00 80 1019.9
20260903041312 13 0 0.0 4.8 0.00 0.00 0.00 80 1019.8
20260903040312 13 0 0.0 6.4 0.00 0.00 0.00 80 1020.0
20260903035312 13 0 0.0 0.0 0.00 0.00 0.00 80 1020.0
20260903034311 13 45 0.0 1.6 0.00 0.00 0.00 81 1019.9
20260903033311 13 0 0.0 0.0 0.00 0.00 0.00 81 1019.9
20260903031311 13 0 0.0 0.0 0.00 0.00 0.00 81 1020.0
20260903025311 13 45 0.0 3.2 0.00 0.00 0.00 81 1020.0
20260903024311 13 0 0.0 0.0 0.00 0.00 0.00 81 1020.1
20260903023311 13 0 0.0 0.0 0.00 0.00 0.00 81 1020.1
20260903022310 13 0 0.0 6.4 0.00 0.00 0.00 80 1020.1
20260903021310 14 0 0.0 0.0 0.00 0.00 0.00 79 1020.1
20260903020310 14 45 3.2 4.8 0.00 0.00 0.00 79 1020.1
20260903015310 14 0 0.0 4.8 0.00 0.00 0.00 79 1020.1
20260903014310 13 45 3.2 6.4 0.00 0.00 0.00 79 1020.2
20260903013310 13 0 0.0 6.4 0.00 0.00 0.00 79 1020.2
20260903012309 13 67 3.2 6.4 0.00 0.00 0.00 79 1020.2
20260903011309 13 45 3.2 6.4 0.00 0.00 0.00 79 1020.0
20260903010309 14 22 0.0 6.4 0.00 0.00 0.00 78 1020.2
20260903005309 14 22 4.8 6.4 0.00 0.00 0.00 78 1020.2
20260903004309 14 45 3.2 6.4 0.00 0.00 0.00 77 1020.1
20260903003314 14 45 1.6 6.4 0.00 0.00 0.00 77 1020.1
20260903002314 14 45 4.8 8.0 0.00 0.00 0.00 75 1020.1
20260903000313 14 45 4.8 8.0 0.00 0.00 0.00 76 1020.1
20260902235313 14 45 4.8 8.0 0.00 0.00 0.00 76 1020.1
20260902234313 14 22 4.8 6.4 0.00 0.00 0.00 76 1020.2
20260902233313 14 22 3.2 6.4 0.00 0.00 0.00 75 1020.4
20260902232313 14 45 3.2 8.0 0.00 0.00 0.00 75 1020.4
20260902231313 14 45 3.2 6.4 0.00 0.00 0.00 75 1020.4
20260902230313 14 45 4.8 6.4 0.00 0.00 0.00 75 1020.4
20260902225313 15 22 3.2 6.4 0.00 0.00 0.00 76 1020.6
20260902224312 15 45 4.8 6.4 0.00 0.00 0.00 76 1020.7
20260902223312 14 45 4.8 6.4 0.00 0.00 0.00 76 1020.4
20260902222312 14 22 3.2 6.4 0.00 0.00 0.00 77 1020.6
20260902221312 14 45 3.2 6.4 0.00 0.00 0.00 77 1020.6
20260902220312 14 0 0.0 0.0 0.00 0.00 0.00 77 1020.6
20260902215312 15 45 4.8 6.4 0.00 0.00 0.00 75 1020.6
20260902214312 14 0 0.0 0.0 0.00 0.00 0.00 76 1020.4
20260902213312 15 0 0.0 0.0 0.00 0.00 0.00 77 1020.5
20260902212311 14 0 0.0 4.8 0.00 0.00 0.00 77 1020.3
20260902211311 14 0 0.0 0.0 0.00 0.00 0.00 77 1020.4
20260902210311 14 0 0.0 0.0 0.00 0.00 0.00 77 1020.3
20260902205311 14 22 3.2 4.8 0.00 0.00 0.00 76 1020.1
20260902204311 14 0 0.0 4.8 0.00 0.00 0.00 76 1020.1
20260902201310 14 22 3.2 6.4 0.00 0.00 0.00 76 1020.1
20260902200310 14 22 3.2 6.4 0.00 0.00 0.00 75 1020.1
20260902195312 14 22 4.8 6.4 0.00 0.00 0.00 75 1020.1
20260902193310 14 22 6.4 8.0 0.00 0.00 0.00 75 1019.9
20260902192310 14 22 6.4 8.0 0.00 0.00 0.00 75 1019.9
20260902191310 14 22 6.4 8.0 0.00 0.00 0.00 74 1019.7
20260902190310 14 22 4.8 8.0 0.00 0.00 0.00 74 1019.7
20260902185310 14 22 4.8 8.0 0.00 0.00 0.00 73 1019.5
20260902184309 14 22 4.8 8.0 0.00 0.00 0.00 73 1019.3
20260902183309 15 22 4.8 8.0 0.00 0.00 0.00 72 1019.0
20260902182309 15 22 6.4 8.0 0.00 0.00 0.00 71 1018.8
20260902181314 15 22 6.4 8.0 0.00 0.00 0.00 70 1018.7
20260902180314 16 22 6.4 8.0 0.00 0.00 0.00 68 1018.6
20260902175313 16 22 4.8 8.0 0.00 0.00 0.00 67 1018.6
20260902174313 17 360 4.8 6.4 0.00 0.00 0.00 66 1018.5
20260902172313 18 0 0.0 0.0 0.00 0.00 0.00 63 1019.0
20260902171313 19 0 0.0 0.0 0.00 0.00 0.00 61 1018.9
20260902170313 19 0 0.0 0.0 0.00 0.00 0.00 59 1018.8
20260902165313 19 0 0.0 1.6 0.00 0.00 0.00 58 1018.8
20260902164313 19 0 0.0 0.0 0.00 0.00 0.00 52 1018.8
20260902163312 20 0 0.0 3.2 0.00 0.00 0.00 51 1018.9
20260902161312 20 292 3.2 6.4 0.00 0.00 0.00 51 1018.9
20260902160312 20 202 1.6 11.3 0.00 0.00 0.00 53 1019.1
20260902155312 20 180 0.0 12.9 0.00 0.00 0.00 51 1019.1
20260902154312 20 247 0.0 3.2 0.00 0.00 0.00 54 1019.0
20260902153312 20 202 3.2 9.7 0.00 0.00 0.00 51 1018.9
20260902152311 20 180 1.6 11.3 0.00 0.00 0.00 48 1019.0
20260902151311 20 0 0.0 8.0 0.00 0.00 0.00 48 1019.1
20260902150311 21 225 1.6 12.9 0.00 0.00 0.00 48 1019.1
20260902144311 21 292 6.4 12.9 0.00 0.00 0.00 47 1019.4
20260902143311 21 180 4.8 11.3 0.00 0.00 0.00 47 1019.6
20260902142311 21 315 3.2 14.5 0.00 0.00 0.00 48 1019.7
20260902140310 21 0 0.0 6.4 0.00 0.00 0.00 45 1019.7
20260902134310 22 157 1.6 8.0 0.00 0.00 0.00 46 1020.0
20260902133310 22 360 1.6 9.7 0.00 0.00 0.00 49 1020.2
20260902132311 21 180 0.0 6.4 0.00 0.00 0.00 50 1020.0
20260902131310 20 292 4.8 11.3 0.00 0.00 0.00 51 1019.9
20260902130310 21 292 1.6 3.2 0.00 0.00 0.00 52 1020.2
20260902125310 21 270 1.6 8.0 0.00 0.00 0.00 51 1020.2
20260902124310 21 0 0.0 12.9 0.00 0.00 0.00 51 1020.3
20260902123309 21 202 9.7 14.5 0.00 0.00 0.00 52 1020.4
20260902120314 20 180 0.0 9.7 0.00 0.00 0.00 54 1020.6
20260902115314 20 315 3.2 12.9 0.00 0.00 0.00 53 1020.6
20260902114314 20 270 0.0 9.7 0.00 0.00 0.00 53 1020.6
20260902113314 20 225 0.0 8.0 0.00 0.00 0.00 54 1020.7
20260902112313 20 180 0.0 3.2 0.00 0.00 0.00 53 1020.6
20260902111314 20 180 1.6 16.1 0.00 0.00 0.00 52 1020.7
20260902110313 20 292 1.6 9.7 0.00 0.00 0.00 53 1020.9
20260902104313 20 180 4.8 12.9 0.00 0.00 0.00 49 1021.0
20260902103313 20 315 1.6 9.7 0.00 0.00 0.00 50 1020.9
20260902101312 21 247 3.2 12.9 0.00 0.00 0.00 48 1021.2
20260902100312 21 202 1.6 16.1 0.00 0.00 0.00 50 1021.2
20260902095312 20 202 1.6 9.7 0.00 0.00 0.00 48 1021.0
20260902094312 21 180 4.8 12.9 0.00 0.00 0.00 46 1020.9
20260902092312 21 202 8.0 12.9 0.00 0.00 0.00 49 1021.0
20260902091312 21 270 6.4 11.3 0.00 0.00 0.00 48 1021.1
20260902090312 21 180 0.0 11.3 0.00 0.00 0.00 50 1021.2
20260902085311 20 180 6.4 16.1 0.00 0.00 0.00 52 1021.0
20260902083311 20 202 8.0 14.5 0.00 0.00 0.00 52 1021.0
20260902082311 20 180 6.4 11.3 0.00 0.00 0.00 52 1021.0
20260902081311 20 202 3.2 8.0 0.00 0.00 0.00 55 1021.3
20260902080311 20 202 3.2 9.7 0.00 0.00 0.00 57 1021.2
20260902075310 20 180 1.6 9.7 0.00 0.00 0.00 53 1021.1
20260902074310 20 157 3.2 11.3 0.00 0.00 0.00 53 1021.0
20260902073310 19 202 0.0 6.4 0.00 0.00 0.00 53 1020.7
20260902072310 18 202 3.2 6.4 0.00 0.00 0.00 56 1020.7
20260902071310 18 202 1.6 9.7 0.00 0.00 0.00 57 1020.4
20260902070310 17 0 0.0 0.0 0.00 0.00 0.00 62 1020.4
20260902065310 16 0 0.0 0.0 0.00 0.00 0.00 71 1020.2
20260902064310 15 0 0.0 0.0 0.00 0.00 0.00 75 1020.0
20260902062309 13 45 3.2 4.8 0.00 0.00 0.00 79 1019.8
20260902061309 12 45 4.8 6.4 0.00 0.00 0.00 81 1019.8
20260902060311 11 45 3.2 8.0 0.00 0.00 0.00 83 1019.8
20260902055309 11 45 4.8 8.0 0.00 0.00 0.00 84 1019.8
20260902054315 11 22 4.8 6.4 0.00 0.00 0.00 85 1019.8
20260902052313 11 22 4.8 8.0 0.00 0.00 0.00 85 1019.7
20260902051314 11 22 4.8 8.0 0.00 0.00 0.00 85 1019.6
20260902045313 11 22 3.2 8.0 0.00 0.00 0.00 84 1019.5